This demonstration page uses our WeatherBlox Daily Observations layout. Learn more.

Left ArrowRight Arrow

Hourly Observations for September 28, 2015

Temp ( °F °C ) Dew Point ( °F °C ) Humidity (%) Winds ( mph kmh ) Pressure ( in mb ) Visibility ( mi km ) Precip ( " mm )
12:52 am 00:52 Clear 68 20 61 16.1 78 78 SSE 14 22 29.89 1012 10 16 0.00 0.00
1:52 am 01:52 Clear 66 18.9 61 16.1 84 84 SSE 12 19 29.89 1012 10 16 0.00 0.00
2:52 am 02:52 Mostly Clear 65 18.3 61 16.1 87 87 SSE 12 19 29.89 1012 10 16 0.00 0.00
3:52 am 03:52 Mostly Clear 65 18.3 61 16.1 87 87 SSE 10 17 29.88 1012 10 16 0.00 0.00
4:52 am 04:52 Mostly Clear 63 17.2 61 16.1 93 93 SSE 8 13 29.89 1012 10 16 0.00 0.00
5:52 am 05:52 Mostly Clear 63 17.2 60 15.6 90 90 SSE 9 15 29.89 1012 10 16 0.00 0.00
6:52 am 06:52 Mostly Cloudy 63 17.2 61 16.1 93 93 SSE 8 13 29.91 1013 10 16 0.00 0.00
7:52 am 07:52 Mostly Cloudy 63 17.2 61 16.1 93 93 SSE 10 17 29.92 1013 10 16 0.00 0.00
8:52 am 08:52 Mostly Sunny 65 18.3 61 16.1 87 87 SSE 12 19 29.91 1013 10 16 0.00 0.00
9:52 am 09:52 Mostly Sunny 69 20.6 61 16.1 76 76 SSE 10 17 29.91 1013 10 16 0.00 0.00
10:52 am 10:52 Mostly Sunny 74 23.3 61 16.1 64 64 S 7 11 29.92 1013 10 16 0.00 0.00
11:52 am 11:52 Mostly Sunny 77 25 61 16.1 58 58 S 9 15 29.91 1013 10 16 0.00 0.00
12:52 pm 12:52 Mostly Sunny 80 26.7 62 16.7 54 54 S 6 9 29.90 1013 10 16 0.00 0.00
1:52 pm 13:52 Partly Cloudy 83 28.3 62 16.7 49 49 S 9 15 29.88 1012 10 16 0.00 0.00
2:52 pm 14:52 Partly Cloudy 84 28.9 61 16.1 46 46 S 9 15 29.85 1011 10 16 0.00 0.00
3:52 pm 15:52 Partly Cloudy 86 30 61 16.1 43 43 SSW 12 19 29.83 1010 10 16 0.00 0.00
4:52 pm 16:52 Mostly Cloudy 85 29.4 60 15.6 43 43 S 8 13 29.83 1010 10 16 0.00 0.00
5:52 pm 17:52 Mostly Cloudy 85 29.4 62 16.7 46 46 S 7 11 29.84 1010 10 16 0.00 0.00
6:52 pm 18:52 Mostly Cloudy 83 28.3 62 16.7 49 49 S 5 7 29.85 1011 10 16 0.00 0.00
7:52 pm 19:52 Mostly Cloudy 76 24.4 64 17.8 67 67 N 6 9 29.87 1012 10 16 0.00 0.00
8:52 pm 20:52 Cloudy 74 23.3 65 18.3 74 74 N 7 11 29.90 1013 10 16 0.00 0.00
9:52 pm 21:52 Cloudy 73 22.8 65 18.3 76 76 N 7 11 29.91 1013 10 16 0.00 0.00
10:52 pm 22:52 Cloudy 72 22.2 65 18.3 79 79 N 12 19 29.93 1014 10 16 0.00 0.00
11:52 pm 23:52 Cloudy 71 21.7 65 18.3 81 81 N 9 15 29.93 1014 10 16 0.00 0.00

Powered by AerisWeather